Powrót do katalogu

STARLINK-4770

AktywnyŁącznośćVLEO
NORAD 53849·PAYLOAD·🇺🇸 United States

Wystrzelony Sep 19, 2022 z Cape Canaveral Space Force Station

Loading…

Następne Przeloty (najbliższe 24 godziny)

TLE

ŚwieżeSource: CelesTrak SupGP

Epoka: Sep 14, 2026, 13:25 UTC

1 53849C 22114AH  26257.55951389  .00047563  00000+0  15299-2 0  2575
2 53849  53.1581 151.6583 0001368  91.2771 275.5454 15.31670576    12

Śledź STARLINK-4770 w czasie rzeczywistym z AllMySat

Download on the App Store